Other Public Products
Issued by NWS Charleston, SC

Home | Current Version | Previous Version | Text Only | Print | Product List | Glossary On
Versions: 1 2 3 4 5 6 7 8 9 10 11 12 13 14 15 16 17 18 19 20 21 22 23 24 25 26 27 28 29 30 31 32 33 34 35 36 37 38 39 40 41 42 43 44 45 46 47 48 49 50
000
FPUS82 KCHS 250127
OPUCHS

TEST...KCHS/KSAV Gateway Observations...TEST
National Weather Service Charleston SC
800 PM EST TUE JAN 24 2017

NOTE: "fair" indicates few or no clouds below 12,000 feet with no
significant weather and/or obstructions to visibility.

SCZ050-WAZ558-NCZ071-TXZ119-213-PAZ071-DCZ001-FLZ074-172-MI076-
NYZ176-178-MAZ016-IL014-TNZ027-NJZ106-GAZ044-MD014-250200-
...Gateway Observations for Charleston International...

CITY           SKY/WX    TMP DP  RH WIND       PRES   REMARKS
Chas Airport   CLEAR     56  44  64 W6        29.84R
Seattle        MOCLDY    39  35  86 CALM      30.16R
Charlotte      PTCLDY    53  39  59 W5        29.80R
Dallas DFW     MOCLDY    72  54  53 S9        29.58R
Dallas Love    MOCLDY    73  56  54 S12       29.60R
Philladelphia  CLOUDY    42  31  64 NW18G25   29.53R
Wash National  MOCLDY    48  37  65 NW10G21   29.64R
Baltimore      MOCLDY    44  35  70 W10       29.60R
Miami          CLEAR     71  59  65 W8        29.96R
Detroit        CLOUDY    39  34  82 W7        29.81F WCI  34
Newark         LGT RAIN  41  33  73 NW17G29   29.43R
Laguardia      LGT RAIN  40  35  83 NW17G23   29.41R WCI  31
J F K          LGT RAIN  40  37  89 N13G25    29.42R WCI  32
Boston Logan   DRIZZLE   35  34  96 N14       29.29F WCI  26
Ft. Lauderdale CLEAR     71  57  61 NW7       29.95R
Chicago O`Hare CLOUDY    35  31  85 E10       29.79F WCI  27
Chicago Midway LGT RAIN  37  30  75 E9        29.81R WCI  30
Houston Bush   MOCLDY    72  63  73 S13       29.74R
Houston Hobby  MOCLDY    69  64  84 SE10      29.74S
Nashville      CLEAR     48  35  60 SE8       29.86S
Atlanta        CLEAR     53  35  50 NW5       29.89R

$$

GAZ044-118-TXZ119-213-NCZ071-DCZ001-MDZ014-506-PAZ021-071-NJZ106-
NYZ176-178-MAZ106-OHZ011-021-055-MIZ076-KYZ091-ILZ014-INZ047-
MNZ060-250200-
...Gateway Observations for Savannah International...

CITY           SKY/WX    TMP DP  RH WIND       PRES   REMARKS
Savannah Arpt  CLEAR     55  44  66 W6        29.88R
Atlanta        CLEAR     53  35  50 NW5       29.89R
Charlotte      PTCLDY    53  39  59 W5        29.80R
Dallas DFW     MOCLDY    72  54  53 S9        29.58R
Houston Bush   MOCLDY    72  63  73 S13       29.74R
Wash National  MOCLDY    48  37  65 NW10G21   29.64R
Wash Dulles    MOCLDY    46  37  71 NW22G35   29.65R
Baltimore      MOCLDY    44  35  70 W10       29.60R
Philadelphia   CLOUDY    42  31  64 NW18G25   29.53R
Newark         LGT RAIN  41  33  73 NW17G29   29.43R
Laguardia      LGT RAIN  40  35  83 NW17G23   29.41R WCI  31
J F K          LGT RAIN  40  37  89 N13G25    29.42R WCI  32
Boston         DRIZZLE   35  34  96 N14       29.29F WCI  26
Pittsburg      CLOUDY    39  39 100 W13       29.76R WCI  31
Akron          LGT RAIN  40  37  89 NW8       29.78R FOG     WCI  34
Cleveland      CLOUDY    40  36  86 NW12      29.82R WCI  33
Cincinnati     CLOUDY    38  33  82 CALM      29.86F
Columbus         N/A     39  34  81 W8        29.86S WCI  34
Detroit        CLOUDY    39  34  82 W7        29.81F WCI  34
Chicago O`Hare CLOUDY    35  31  85 E10       29.79F WCI  27
Minneapolis    CLOUDY    33  27  78 E10G20    29.79S WCI  25
Indianapolis   CLOUDY    40  33  76 SE7       29.81F WCI  35

$$




USA.gov is the U.S. government's official web portal to all federal, state and local government web resources and services.